COSMOS 249 DEB, 18551

Orbit data source: Space-Track

COSMOS 249 DEB, 18551 is space debris in LEO originally from a launch on Sun, 20 Oct 1968 UTC launched from the Tyuratam Missile And Space Complex (TTMTR). Debris objects in space refer to the collection of defunct objects orbiting the Earth. Examples of debris include non-operational satellites, rocket bodies, and fragments generated from explosions, collisions, or faulty payload assembly.

Loading next visibility...
Identifier
18551, 1968-091DF
Orbit
LEO
Country
Flag of CISCIS
Related business
Manufacturer
Unknown
Mission
Spacecraft
Bus & Motor
Unknown
Mass
Unknown
Launch date (UTC)
1968-10-20 (58 years ago)
Launch vehicle
Unknown
Launch site
Tyuratam Missile And Space Complex (TTMTR)
Object type
Payload
Rocket body
Debris
Shape & HBR
Unknown shape, 0.1 m
Radar Cross Section
Small (<0.1 m²)

Expand to show TLE details & history
Last TLE update: 1 day ago

TLE from 1 day ago
0 COSMOS 249 DEB
1 18551U 68091DF  26124.76076439  .00003593  00000-0  15485-2 0  9996
2 18551  62.2957 254.6323 0702353 180.5954 330.0672 13.39776075640717
Epoch: 2026-05-04T18:15Z
TLE epoch observation values (Epoch: 2026-05-04T18:15:30.043Z)
Latitude
29.47951°
Longitude
-79.05894°
Altitude
666.857 km
Speed
7.747 km/s
True Right ascension
03h 49m 50s
True Declination
29° 19' 50"
Sunlit
Object was in daylight at epoch
Visualization orbit readout
Latitude
Unknown
Longitude
Unknown
Altitude
Unknown
Speed
Unknown
Apparent Right ascension
Unknown
Apparent Declination
Unknown
Sunlit
N/A
Visualization observer readout
Local Sidereal Time
07:18:58
Azimuth
Unknown
Elevation
Unknown
Doppler factor
Unknown
Orbital elements
Apogee altitude
1,634.943 km
Perigee altitude
583.21 km
Semi-major axis
7,487.214 km
Eccentricity
0.07024
Inclination
62.2957°
RAAN
254.6323°
Arg. of periapsis
180.5954°
True anomaly
325.72588°
Mean anomaly
330.0672°
Eccentric anomaly
327.93057°
Mean motion
3.35014 °/min
Orbital period
107.46 mins
BSTAR
0.0015485
Loading maneuver chart data...
Computing Atmospheric mass density...

Documentation

Showing up to 5 results
|